Location: Amanico Ergina Village
(37.7824°N, 122.4366°W)
Time: 21:41:36
(UTC+00:00)

Cosmos 1023 Rocket - Pass Details

Date: 29 October 2020
Orbit: 736 x 772 km, 74.1° (Epoch: 23 November)

Event Time Altitude Azimuth Distance (km) Brightness Sun altitude
Rises 13:34:23 0° 199° (SSW) 3,159 7.6 -12.1°
Reaches altitude 10° 13:36:44 10° 200° (SSW) 2,237 6.8 -11.6°
Maximum altitude 13:41:48 81° 288° (WNW) 751 4.4 -10.6°
Drops below altitude 10° 13:46:53 10° 16° (NNE) 2,248 7.0 -9.6°
Sets 13:49:15 0° 17° (NNE) 3,175 7.8 -9.2°
